Theta_e
308 308 307 307 307 307 308 308 308 308 308 309 309 309 310 310 310 311 311 313 315 315 314 313 314 315 318 318 318 318 313 314 317 316 317 316 316 317 318 318 318 318 320 321 322
308 308 307 307 307 307 308 308 308 308 308 309 309 309 309 310 310 311 313 313 313 314 313 313 314 316 317 317 317 314 312 314 314 314 315 316 317 318 317 317 317 317 320 321 321
308 307 307 307 307 307 307 308 308 308 308 308 309 309 309 310 311 312 313 312 312 312 312 314 315 316 316 317 317 315 312 313 314 315 316 316 315 316 315 313 316 317 318 321 323
307 307 307 307 307 307 307 308 307 308 308 308 308 308 309 311 310 315 314 312 311 311 313 314 314 314 313 314 317 315 315 315 315 315 315 315 316 315 315 317 317 317 317 318 320
307 307 307 307 307 307 307 307 307 308 308 308 308 308 309 311 315 313 313 312 311 311 312 313 314 314 311 314 314 314 313 314 315 315 314 315 314 314 315 316 317 317 317 318 319
307 307 307 307 307 307 307 307 308 308 308 308 308 309 309 311 313 313 313 312 312 311 311 312 313 314 314 313 312 314 313 313 314 314 314 313 312 314 314 315 316 316 316 317 318
307 307 307 307 307 307 308 308 308 308 308 309 309 309 309 310 312 312 310 311 312 312 312 313 313 313 314 313 315 314 313 312 312 313 313 314 309 311 313 315 315 316 316 317 318
307 307 307 307 308 308 308 308 308 309 309 309 309 309 310 310 311 312 311 310 311 312 312 313 313 315 315 314 313 312 309 309 310 312 314 311 308 309 315 314 313 315 315 316 316
307 308 308 308 308 308 309 309 309 309 309 309 309 309 311 310 310 311 312 311 310 312 313 312 313 314 314 309 310 309 308 311 311 311 312 311 310 311 315 315 314 314 315 315 315
311 309 310 310 310 309 309 309 309 310 309 309 309 309 309 310 310 312 313 312 312 311 312 314 314 310 307 306 307 310 312 311 311 312 312 312 310 309 315 313 314 314 315 316 316
317 316 315 313 314 314 312 312 309 309 308 309 309 309 309 311 310 312 313 312 312 312 309 312 310 310 310 308 308 309 312 313 312 313 313 311 310 309 313 313 313 314 314 314 314
319 319 320 320 320 320 318 315 312 312 310 308 310 309 310 310 311 312 313 313 312 310 311 309 309 309 309 309 310 311 312 312 311 312 312 311 310 309 309 311 313 313 313 314 314
317 318 317 319 321 320 319 319 316 314 316 316 309 309 310 310 311 311 313 313 311 310 311 309 310 310 311 312 312 312 311 312 311 311 310 310 307 308 309 311 313 314 313 314 315
313 317 316 316 317 319 319 318 317 318 316 317 316 312 310 309 310 312 312 313 312 310 310 312 312 311 312 312 311 312 311 312 312 310 309 309 307 308 309 308 308 313 312 313 314
313 314 315 316 314 314 317 317 317 318 312 314 314 313 309 309 310 313 312 313 311 311 311 311 312 312 312 312 311 311 311 312 312 310 312 310 309 307 307 309 308 309 312 316 316
312 315 316 315 315 315 314 317 317 314 313 315 312 311 310 310 311 312 312 313 312 310 310 310 311 310 310 311 311 310 311 309 307 306 308 308 307 305 308 310 311 311 313 313 315
309 312 314 313 316 316 315 316 318 317 314 315 314 310 310 310 311 310 310 311 310 312 311 312 311 311 311 311 311 310 308 308 309 309 308 307 308 307 308 308 310 310 311 312 313
308 310 312 315 315 316 316 315 316 317 317 312 313 311 312 310 310 310 310 311 309 308 309 311 312 310 310 310 311 309 307 308 307 310 309 308 310 310 309 309 310 313 313 314 315
305 308 308 314 315 315 314 312 316 316 317 313 313 314 313 311 310 310 309 309 309 307 309 310 310 309 309 309 310 311 310 307 308 296 306 308 308 308 308 309 311 312 314 314 315
301 304 307 311 314 315 313 312 314 315 315 314 316 313 314 312 311 310 309 309 310 308 308 308 311 309 310 310 309 309 308 311 308 307 306 308 308 309 311 310 310 310 313 314 314
300 301 304 307 313 312 314 313 313 314 315 315 317 315 312 312 310 310 311 310 309 309 308 309 309 310 309 310 310 310 310 310 309 307 307 306 308 305 309 310 309 311 313 313 313
301 298 302 306 310 309 310 312 312 314 314 314 313 316 317 311 311 311 312 312 311 310 308 309 309 309 310 308 308 309 309 310 310 309 306 308 310 307 308 307 309 311 311 312 312
300 301 302 307 306 306 306 308 309 312 313 313 314 314 314 316 316 315 313 312 309 310 312 311 311 309 311 310 309 310 310 309 308 306 307 308 311 305 307 307 308 309 310 311 313
300 297 300 304 303 303 305 307 309 308 309 311 312 312 312 312 313 315 315 312 311 311 312 311 310 309 311 312 311 313 311 313 310 306 308 310 311 309 308 308 310 311 312 313 313
299 298 299 297 302 303 302 305 307 307 307 308 308 311 312 312 313 312 312 311 310 310 309 310 308 311 311 311 312 313 312 312 313 313 312 313 313 312 311 310 311 312 311 312 312
298 297 299 298 299 301 302 302 304 305 306 306 307 308 309 311 311 311 311 310 311 309 309 307 308 310 308 310 311 311 310 311 311 311 312 311 312 310 310 310 310 310 309 308 308
296 297 298 297 297 299 300 301 302 303 303 305 305 305 306 307 306 306 308 309 308 307 308 305 308 306 304 304 307 305 306 307 308 309 310 311 310 308 307 306 306 307 307 305 306
Wind_Speed
19 17 15 14 13 13 12 12 10 10 8 8 7 7 6 7 7 9 10 9 7 10 10 10 10 11 9 6 5 3 4 1 1 4 4 9 4 5 5 10 6 7 8 5 20
19 18 16 14 14 13 12 11 10 9 8 8 7 6 6 7 8 9 9 9 10 10 11 11 11 12 5 4 4 4 4 8 2 3 4 6 4 11 6 8 4 7 9 13 22
21 19 18 16 14 14 12 11 10 9 8 8 7 6 6 7 7 7 10 9 12 12 12 13 12 8 4 5 4 4 5 5 2 5 5 5 3 7 9 4 11 15 15 19 24
20 20 18 17 15 13 12 11 10 9 8 7 7 7 7 9 4 7 10 11 12 12 13 11 10 7 5 4 5 4 3 3 6 4 4 4 2 4 12 8 4 16 15 20 24
19 18 16 15 15 14 12 11 10 9 7 7 6 6 8 6 3 4 9 12 13 13 13 13 14 6 6 4 6 3 1 2 4 3 3 3 3 4 11 14 10 5 13 21 23
19 18 16 15 14 14 14 11 10 9 8 8 6 6 9 5 5 5 8 11 13 13 14 14 10 6 5 5 5 4 4 3 3 2 2 1 1 1 6 11 18 14 16 21 25
17 17 16 14 12 13 11 11 10 10 9 7 6 7 8 7 6 8 8 10 12 13 15 13 9 7 7 5 6 5 3 1 5 4 2 1 5 8 14 8 7 19 15 19 25
16 16 15 13 12 12 12 11 11 10 8 7 6 7 4 8 6 9 9 9 11 13 12 12 7 7 4 9 4 3 5 2 2 7 3 4 7 4 3 8 16 14 18 21 23
15 15 14 13 12 12 11 11 11 10 9 7 6 5 3 8 10 10 11 9 11 11 9 11 9 3 6 6 4 5 3 3 4 9 4 4 6 6 4 4 9 11 17 21 22
14 14 14 13 11 12 11 10 9 10 9 5 5 4 6 7 11 14 12 12 7 12 10 7 3 3 3 4 6 6 4 4 4 5 1 3 8 10 19 16 18 18 22 24 26
14 12 13 13 11 11 11 10 7 4 14 7 4 2 6 9 11 13 15 12 13 7 4 3 4 6 10 8 4 5 4 3 2 3 4 7 7 11 22 21 23 27 28 30 31
16 15 13 13 13 11 11 8 8 4 5 14 6 7 7 11 6 14 17 9 7 5 5 5 4 8 2 4 4 3 2 4 2 1 3 4 10 10 13 21 29 29 28 29 31
18 19 14 11 12 10 9 8 6 5 1 3 14 10 9 12 4 18 21 9 4 5 5 6 4 7 6 5 6 5 5 3 4 1 1 3 8 6 5 7 14 21 22 20 19
18 23 24 19 9 10 6 9 6 6 3 4 6 7 13 8 3 12 21 8 3 9 8 5 4 5 5 5 5 5 5 3 2 3 4 2 5 5 7 10 8 23 17 14 13
11 21 22 22 20 12 7 9 6 5 1 2 4 9 14 10 14 9 22 6 8 7 7 7 6 5 4 6 5 6 3 2 2 3 2 3 1 7 4 8 10 14 6 9 11
12 16 14 25 21 27 18 10 5 4 7 3 5 6 7 3 2 7 8 5 4 4 2 5 1 5 7 3 2 6 6 7 5 3 3 7 6 5 4 4 4 7 9 9 8
10 13 16 17 21 23 27 15 3 6 2 6 5 6 4 5 4 4 7 7 7 5 4 1 1 1 4 5 4 4 6 2 3 2 6 2 2 7 7 6 2 6 9 9 9
12 13 15 18 21 19 25 5 6 3 5 3 4 7 6 7 4 4 7 8 5 4 4 7 3 7 5 7 9 7 8 6 7 4 4 1 5 5 1 4 9 10 13 14 15
14 14 13 16 15 22 15 2 6 5 1 6 5 5 5 4 6 5 7 6 8 9 7 6 5 1 1 4 8 5 4 5 6 3 3 4 5 10 6 4 12 14 16 16 19
12 12 13 14 18 12 3 4 4 3 3 5 4 5 7 8 6 7 9 5 5 10 3 7 3 1 1 3 4 5 7 3 3 2 4 4 4 6 3 3 8 11 16 17 16
11 8 12 15 12 7 3 4 4 5 5 2 1 3 5 7 6 5 9 2 1 5 12 6 4 2 4 5 8 3 3 3 5 5 5 1 5 7 5 9 7 7 14 18 23
8 2 12 16 5 3 3 5 8 8 6 1 3 3 2 5 4 5 5 2 8 3 8 4 5 4 5 2 3 3 6 6 5 4 3 3 7 5 8 12 9 10 15 22 26
5 2 11 17 5 5 2 3 4 5 6 8 5 2 4 3 4 3 4 1 7 3 6 6 1 3 4 3 1 2 1 3 4 3 6 4 5 3 10 6 1 7 18 26 25
4 2 2 13 3 4 5 6 6 7 4 5 6 11 5 1 5 4 2 2 3 4 6 5 3 5 7 4 3 5 3 3 3 3 4 13 10 11 11 10 24 30 32 29 25
5 3 3 3 7 3 1 5 11 6 7 9 2 6 6 5 8 8 3 1 5 2 5 3 4 2 3 5 4 5 6 5 5 4 4 1 9 5 7 10 19 18 15 17 17
8 3 3 3 10 11 4 4 8 5 7 5 4 8 4 5 5 6 8 5 5 1 2 4 2 2 2 4 5 5 10 8 8 5 11 7 20 12 19 7 8 12 13 13 15
14 9 2 0 4 6 7 4 6 7 3 7 7 4 5 6 7 8 6 6 9 8 4 4 5 3 2 4 4 7 10 13 8 6 9 11 17 4 3 3 7 10 7 13 16
Wind_Direction
187 185 188 188 195 195 193 195 195 199 195 200 197 198 186 171 179 179 188 174 160 179 170 168 168 170 163 154 142 141 70 154 234 158 194 167 136 129 157 160 179 188 176 187 176
189 186 186 187 195 196 196 197 196 202 195 197 198 194 186 184 172 180 183 169 170 173 170 164 158 162 153 141 164 104 119 196 200 147 181 179 176 157 151 161 200 188 187 168 172
191 188 186 187 192 195 197 194 195 202 197 196 199 204 187 175 165 194 188 177 170 170 173 156 152 157 127 157 166 146 174 199 151 112 132 175 185 174 152 216 211 207 192 181 180
194 192 189 187 189 195 195 198 199 193 197 199 196 194 190 178 166 185 182 178 169 175 178 167 161 158 126 161 171 135 171 180 162 142 140 168 189 217 206 218 223 229 214 199 195
191 195 191 190 191 188 198 194 192 190 194 199 204 195 180 182 183 163 180 177 172 180 182 179 167 155 149 166 137 149 142 149 159 163 169 213 202 252 250 230 206 197 213 212 211
190 192 193 192 192 195 189 193 191 189 192 191 193 195 185 170 182 181 171 177 176 183 177 178 181 174 136 160 157 152 155 163 220 228 177 226 167 99 269 236 233 235 226 222 221
190 192 190 196 195 197 200 190 195 196 194 192 196 180 193 197 187 188 175 179 179 185 182 183 165 175 148 115 130 132 132 26 233 218 198 174 298 229 265 250 232 228 225 228 228
193 192 191 192 194 203 197 200 194 201 199 192 197 183 181 198 188 180 178 173 181 187 188 188 178 151 133 124 62 83 51 109 256 161 191 128 264 269 341 257 231 234 232 231 236
195 193 193 192 192 201 207 203 196 196 205 192 196 176 178 188 192 182 179 167 178 179 174 181 176 134 120 94 35 6 189 199 305 204 142 153 254 247 173 356 307 266 252 249 250
189 191 188 183 188 193 200 198 199 189 193 187 215 170 202 194 186 182 174 163 152 156 138 151 124 81 47 103 194 190 198 224 219 215 155 186 257 280 280 288 278 270 264 261 255
178 183 180 174 175 183 183 167 154 193 183 194 199 157 162 172 172 180 173 166 149 158 138 123 103 191 202 193 132 148 153 177 236 206 155 226 255 265 276 284 276 272 268 265 263
181 185 177 179 171 168 173 179 181 169 199 207 186 180 163 170 155 177 173 166 153 164 117 43 212 218 176 175 181 218 226 234 293 72 165 277 267 256 258 264 271 278 280 276 273
197 198 198 182 173 164 174 169 165 170 113 207 211 199 186 191 193 187 181 168 136 130 161 160 231 152 180 174 161 179 175 200 217 15 284 329 292 311 293 260 285 281 279 286 280
220 202 198 209 188 166 164 161 151 149 71 234 205 209 201 168 209 185 184 159 160 176 162 211 240 127 155 184 143 184 205 183 176 78 239 52 284 305 269 291 284 280 305 306 295
222 214 221 207 213 194 181 166 155 139 130 187 154 171 168 176 141 174 184 186 162 174 133 230 180 173 159 205 155 212 151 138 105 119 35 324 67 273 290 277 285 298 331 48 52
219 172 213 220 228 228 224 197 155 65 236 169 136 158 125 132 93 129 168 171 158 126 56 190 116 153 188 87 148 139 75 44 50 68 296 213 169 286 221 223 328 35 67 43 44
198 194 180 198 210 211 212 194 165 195 161 182 176 162 133 149 127 151 158 169 161 131 170 8 185 117 139 84 50 87 86 334 339 356 230 52 139 246 264 245 297 31 30 25 23
205 200 201 187 207 191 198 163 201 211 201 152 133 123 166 145 185 145 130 186 251 122 126 154 228 176 189 172 174 185 155 162 199 200 269 261 236 244 254 270 11 46 75 65 45
204 202 205 193 176 194 180 160 191 199 337 148 112 124 190 183 143 137 185 194 206 184 160 160 244 16 103 144 148 187 186 166 104 28 55 236 290 306 317 37 78 63 50 45 56
192 195 206 195 203 214 108 208 190 166 312 202 171 164 170 171 143 164 170 194 214 192 201 198 136 344 207 129 47 157 162 80 1 149 254 258 250 220 195 177 62 44 48 47 46
179 183 193 183 179 220 197 159 209 165 143 173 244 187 175 162 143 181 195 1 252 196 178 149 116 260 136 202 167 137 163 108 129 156 182 254 258 222 214 113 111 71 49 35 11
173 150 174 173 177 211 175 170 160 148 161 146 3 349 96 149 129 176 173 280 330 178 161 192 133 158 193 327 202 157 176 154 152 234 232 160 250 136 116 112 87 73 358 344 344
171 108 178 178 191 205 264 178 160 137 169 170 192 351 351 76 119 118 125 194 15 70 155 169 165 75 8 0 22 151 89 195 117 91 208 149 250 201 102 106 13 327 341 344 344
179 134 138 202 179 155 172 195 192 207 163 176 181 155 177 228 27 29 106 33 16 82 73 113 106 158 182 143 110 117 8 12 147 152 166 231 266 260 351 360 326 330 335 335 334
206 232 191 189 214 181 57 192 185 187 199 190 227 201 164 151 163 185 170 94 19 81 23 74 112 98 105 134 119 179 221 220 205 178 194 355 293 288 301 284 302 321 337 340 336
172 198 184 189 159 193 205 223 201 195 165 198 176 193 188 174 178 189 147 173 180 118 99 15 121 79 36 185 176 220 227 239 239 214 256 257 269 290 285 341 6 345 0 14 4
194 193 181 241 154 160 208 201 199 164 251 198 163 135 188 199 120 95 118 149 157 142 121 115 123 105 256 346 111 301 224 201 206 203 220 241 249 339 43 62 330 336 22 6 357